Terminal Aerodrome Forecast
Issued by NWS Atlanta, GA

Home | Current Version | Previous Version | Text Only | Print | Product List | Glossary On
Versions: 1 2 3 4 5 6 7 8 9 10 11 12 13 14 15 16 17 18 19 20 21 22 23 24 25 26 27 28 29 30 31 32 33 34 35 36
413
FTUS42 KFFC 070259 AAB
TAFATL
TAF AMD
KATL 070259Z 0703/0806 35005KT P6SM FEW250
     FM071500 32011G17KT P6SM FEW250
     FM080000 29006KT P6SM SCT250=

USA.gov is the U.S. government's official web portal to all federal, state and local government web resources and services.